La Grange, TX

2:28 PM CST on November 20, 2019 (GMT -0600)
La Grange

Weather History for K3T5 - August, 2019

Change the Weather History Date:

Sunday, August 11, 2019

  Actual Average (WUND) Record (WUND)
Temperature  
Mean Temperature 89 °F -  
Max Temperature 101 °F - - (-1)
Min Temperature 77 °F - - (-1)
Cooling Degree Days 24    
Growing Degree Days 39 (Base 50)    
Moisture  
Dew Point 76 °F    
Average Humidity 71    
Maximum Humidity 100    
Minimum Humidity 37    
Precipitation  
Precipitation 0.00 in - - ()
Sea Level Pressure  
Sea Level Pressure 29.94 in    
Wind  
Wind Speed 3 mph (South)    
Max Wind Speed 8 mph    
Max Gust Speed -    
Visibility 9 miles    
Events      
Averages and records for this station are not official NWS values.
T = Trace of Precipitation, MM = Missing Value Source: NWS Daily Summary

Daily Weather History Graph

Daily Weather History Graph

Search for Another Location

Airport or City:

Astronomy

Aug. 11, 2019 Rise Set
Actual Time 6:52 AM CDT 8:12 PM CDT
Civil Twilight 6:27 AM CDT 8:38 PM CDT
Nautical Twilight 5:57 AM CDT 9:08 PM CDT
Astronomical Twilight 5:25 AM CDT 9:39 PM CDT
Moon 5:42 PM CDT (8/11) 3:23 AM CDT (8/11)
Length of Visible Light 14h 10m
Length of Day
13h 19m
Waxing Gibbous, 87% of the Moon is Illuminated
Aug 11
Waxing Gibbous
Aug 15
Full
Aug 23
Last Quarter
Aug 30
New
Sep 5
First Quarter

Hourly Weather History & Observations

Time (CDT) Temp. Heat Index Dew Point Humidity Pressure Visibility Wind Dir Wind Speed Gust Speed Precip Events Conditions
12:15 AM 82.8 °F 93.2 °F 79.0 °F 88% 29.96 in 10.0 mi South 3.5 mph - N/A   Clear
12:35 AM 81.9 °F 91.3 °F 79.2 °F 91% 29.95 in 10.0 mi South 3.5 mph - N/A   Clear
12:55 AM 81.5 °F 91.0 °F 79.7 °F 94% 29.96 in 10.0 mi South 3.5 mph - N/A   Clear
1:15 AM 81.0 °F 89.7 °F 79.9 °F 96% 29.96 in 10.0 mi Calm Calm - N/A   Clear
1:35 AM 80.6 °F 88.9 °F 80.1 °F 98% 29.95 in 10.0 mi Calm Calm - N/A   Clear
1:55 AM 80.8 °F 89.7 °F 80.6 °F 99% 29.95 in 10.0 mi Calm Calm - N/A   Mostly Cloudy
2:15 AM 80.2 °F 88.0 °F 80.2 °F 100% 29.95 in 7.0 mi Calm Calm - N/A   Mostly Cloudy
2:35 AM 80.1 °F 87.4 °F 80.1 °F 100% 29.95 in 7.0 mi South 3.5 mph - N/A   Scattered Clouds
2:55 AM 80.1 °F 87.4 °F 80.1 °F 100% 29.94 in 7.0 mi SSW 3.5 mph - N/A   Clear
3:15 AM 80.1 °F 87.4 °F 80.1 °F 100% 29.94 in 7.0 mi SSW 3.5 mph - N/A   Clear
3:35 AM 79.9 °F - 79.9 °F 100% 29.95 in 7.0 mi Calm Calm - N/A   Clear
3:55 AM 79.3 °F - 79.3 °F 100% 29.95 in 7.0 mi Calm Calm - N/A   Scattered Clouds
4:15 AM 78.8 °F - 78.8 °F 100% 29.96 in 5.0 mi Calm Calm - N/A   Scattered Clouds
4:35 AM 78.4 °F - 78.4 °F 100% 29.96 in 5.0 mi Calm Calm - N/A   Scattered Clouds
4:55 AM 78.3 °F - 78.3 °F 100% 29.96 in 5.0 mi Calm Calm - N/A   Clear
5:15 AM 77.7 °F - 77.7 °F 100% 29.96 in 4.0 mi Calm Calm - N/A   Clear
5:35 AM 77.5 °F - 77.5 °F 100% 29.97 in 4.0 mi Calm Calm - N/A   Clear
5:55 AM 77.9 °F - 77.9 °F 100% 29.97 in 4.0 mi Calm Calm - N/A   Scattered Clouds
6:15 AM 77.5 °F - 77.5 °F 100% 29.97 in 3.0 mi Calm Calm - N/A   Clear
6:35 AM 77.5 °F - 77.5 °F 100% 29.97 in 4.0 mi Calm Calm - N/A   Clear
6:55 AM 77.2 °F - 77.2 °F 100% 29.97 in 3.0 mi Calm Calm - N/A   Scattered Clouds
7:15 AM 77.9 °F - 77.9 °F 100% 29.98 in 3.0 mi Calm Calm - N/A   Mostly Cloudy
7:35 AM 78.1 °F - 78.1 °F 100% 29.99 in 2.5 mi Calm Calm - N/A   Overcast
7:55 AM 79.0 °F - 79.0 °F 100% 29.99 in 5.0 mi Calm Calm - N/A   Scattered Clouds
8:15 AM 80.1 °F 87.4 °F 80.1 °F 100% 29.99 in 7.0 mi Calm Calm - N/A   Clear
8:35 AM 82.2 °F 95.1 °F 81.9 °F 99% 30.00 in 10.0 mi Calm Calm - N/A   Clear
8:55 AM 84.2 °F 98.7 °F 81.0 °F 90% 30.00 in 10.0 mi South 4.6 mph - N/A   Mostly Cloudy
9:15 AM 86.4 °F 102.0 °F 80.2 °F 82% 30.00 in 10.0 mi SSW 4.6 mph - N/A   Mostly Cloudy
9:35 AM 86.9 °F 100.9 °F 79.0 °F 77% 30.00 in 10.0 mi SW 3.5 mph - N/A   Mostly Cloudy
9:55 AM 88.0 °F 102.5 °F 78.8 °F 74% 30.00 in 10.0 mi South 5.8 mph - N/A   Mostly Cloudy
10:15 AM 89.6 °F 102.8 °F 77.4 °F 67% 30.01 in 7.0 mi SSW 4.6 mph - N/A   Mostly Cloudy
10:35 AM 92.5 °F 106.0 °F 77.0 °F 60% 30.00 in 10.0 mi South 8.1 mph - N/A   Overcast
10:55 AM 91.8 °F 106.1 °F 77.4 °F 63% 30.01 in 10.0 mi SW 5.8 mph - N/A   Mostly Cloudy
11:15 AM 92.5 °F 106.7 °F 77.4 °F 61% 30.01 in 10.0 mi Calm Calm - N/A   Overcast
11:35 AM 94.5 °F 108.3 °F 76.5 °F 56% 30.00 in 10.0 mi SSW 4.6 mph - N/A   Mostly Cloudy
11:55 AM 94.3 °F 106.3 °F 75.4 °F 54% 30.00 in 10.0 mi SSW 5.8 mph - N/A   Scattered Clouds
12:15 PM 94.3 °F 104.9 °F 74.5 °F 52% 29.99 in 10.0 mi South 5.8 mph - N/A   Scattered Clouds
12:35 PM 96.3 °F 106.8 °F 73.4 °F 48% 29.99 in 10.0 mi SSE 4.6 mph - N/A   Scattered Clouds
12:55 PM 96.4 °F 108.0 °F 74.7 °F 49% 29.98 in 10.0 mi SW 5.8 mph - N/A   Mostly Cloudy
1:15 PM 99.0 °F 110.1 °F 73.8 °F 44% 29.97 in 10.0 mi South 3.5 mph - N/A   Scattered Clouds
1:35 PM 98.4 °F 109.6 °F 73.9 °F 45% 29.96 in 10.0 mi SSW 4.6 mph - N/A   Scattered Clouds
1:55 PM 98.4 °F 108.8 °F 73.2 °F 44% 29.95 in 10.0 mi South 5.8 mph - N/A   Clear
2:15 PM 98.4 °F 108.8 °F 73.4 °F 44% 29.94 in 10.0 mi Calm Calm - N/A   Scattered Clouds
2:35 PM 99.7 °F 109.3 °F 72.1 °F 41% 29.93 in 10.0 mi South 5.8 mph - N/A   Mostly Cloudy
2:55 PM 99.5 °F 108.9 °F 72.0 °F 41% 29.92 in 10.0 mi SW 4.6 mph - N/A   Mostly Cloudy
3:15 PM 99.7 °F 108.5 °F 71.4 °F 40% 29.92 in 10.0 mi SSW 5.8 mph - N/A   Scattered Clouds
3:35 PM 99.7 °F 109.3 °F 72.0 °F 41% 29.91 in 10.0 mi South 3.5 mph - N/A   Mostly Cloudy
3:55 PM 99.3 °F 107.7 °F 71.1 °F 40% 29.90 in 10.0 mi ESE 3.5 mph - N/A   Overcast
4:15 PM 101.1 °F 111.0 °F 72.0 °F 39% 29.89 in 10.0 mi SE 4.6 mph - N/A   Mostly Cloudy
4:35 PM 100.4 °F 109.3 °F 71.2 °F 39% 29.89 in 10.0 mi South 4.6 mph - N/A   Mostly Cloudy
4:55 PM 101.7 °F 110.5 °F 70.7 °F 37% 29.89 in 10.0 mi Calm Calm - N/A   Scattered Clouds
5:15 PM 101.1 °F 109.3 °F 70.5 °F 37% 29.88 in 10.0 mi SE 3.5 mph - N/A   Clear
5:35 PM 101.8 °F 110.9 °F 70.7 °F 37% 29.88 in 10.0 mi South 4.6 mph - N/A   Scattered Clouds
5:55 PM 101.5 °F 110.1 °F 71.1 °F 37% 29.88 in 10.0 mi Calm Calm - N/A   Clear
6:15 PM 101.3 °F 110.5 °F 71.4 °F 38% 29.87 in 10.0 mi SSE 4.6 mph - N/A   Scattered Clouds
6:35 PM 100.9 °F 110.6 °F 72.0 °F 39% 29.87 in 10.0 mi SE 3.5 mph - N/A   Scattered Clouds
6:55 PM 99.0 °F 108.5 °F 72.3 °F 42% 29.87 in 10.0 mi SSE 5.8 mph - N/A   Scattered Clouds
7:15 PM 98.8 °F 109.7 °F 73.2 °F 44% 29.86 in 10.0 mi SSE 3.5 mph - N/A   Mostly Cloudy
7:35 PM 97.3 °F 108.6 °F 73.8 °F 47% 29.87 in 10.0 mi SSE 6.9 mph - N/A   Scattered Clouds
7:55 PM 95.2 °F 107.1 °F 75.2 °F 52% 29.88 in 10.0 mi SSE 5.8 mph - N/A   Clear
8:15 PM 93.7 °F 105.7 °F 75.4 °F 55% 29.88 in 10.0 mi SSE 4.6 mph - N/A   Clear
8:35 PM 92.3 °F 104.1 °F 75.7 °F 58% 29.89 in 10.0 mi SSE 4.6 mph - N/A   Clear
8:55 PM 91.0 °F 102.9 °F 76.1 °F 61% 29.90 in 10.0 mi SSE 4.6 mph - N/A   Clear
9:15 PM 90.5 °F 102.1 °F 75.9 °F 62% 29.90 in 10.0 mi SSE 6.9 mph - N/A   Clear
9:35 PM 89.4 °F 101.1 °F 76.3 °F 65% 29.91 in 10.0 mi South 6.9 mph - N/A   Clear
9:55 PM 88.7 °F 100.4 °F 76.6 °F 67% 29.91 in 10.0 mi South 5.8 mph - N/A   Clear
10:15 PM 87.6 °F 99.2 °F 76.6 °F 70% 29.92 in 10.0 mi South 4.6 mph - N/A   Clear
10:35 PM 86.7 °F 98.3 °F 77.0 °F 73% 29.92 in 10.0 mi South 4.6 mph - N/A   Clear
10:55 PM 85.6 °F 97.3 °F 77.7 °F 77% 29.92 in 10.0 mi SSE 4.6 mph - N/A   Clear
11:15 PM 84.9 °F 96.6 °F 78.3 °F 80% 29.92 in 10.0 mi South 5.8 mph - N/A   Clear
11:35 PM 84.0 °F 95.2 °F 78.4 °F 83% 29.93 in 10.0 mi SSE 3.5 mph - N/A   Clear
11:55 PM 83.3 °F 94.2 °F 78.8 °F 86% 29.93 in 10.0 mi South 3.5 mph - N/A   Clear